Location: Pella
(41.4080°N, 92.9160°W)
Time: 08:57:37
(UTC-05:00)

ASTRO E2 - Visible Passes

Search period start: 23 April 2014 00:00
Search period end: 03 May 2014 00:00
Orbit: 537 x 544 km, 31.4° (Epoch: 22 April)

Date Brightness Start Highest point End Pass type
(mag) Time Alt. Az. Time Alt. Az. Time Alt. Az.
23 Apr 4.6 04:28:10 19° SSE 04:28:10 19° SSE 04:30:16 10° SE visible
24 Apr 4.8 04:19:10 16° SSE 04:19:10 16° SSE 04:20:31 10° SE visible
25 Apr 5.2 04:10:15 12° SE 04:10:15 12° SE 04:10:41 10° SE visible
25 Apr 5.0 05:47:35 10° SSW 05:48:03 10° SSW 05:48:31 10° SSW visible
02 May 4.9 21:45:52 10° SSW 21:46:44 13° S 21:46:44 13° S visible
